Change the Weather History Date:

Tuesday, May 13, 2014

  Actual Average (KJAN) Record (KJAN)
Temperature  
Mean Temperature 78 °F 72 °F  
Max Temperature 87 °F 82 °F 93 °F (1916)
Min Temperature 71 °F 61 °F 42 °F (1960)
Degree Days  
Heating Degree Days 0 0  
Month to date heating degree days 10  
Since 1 July heating degree days 2389  
Cooling Degree Days 14 7  
Month to date cooling degree days 74  
Year to date cooling degree days 192  
Growing Degree Days 28 (Base 50)    
Moisture  
Dew Point 64 °F    
Average Humidity 69    
Maximum Humidity 84    
Minimum Humidity 38    
Precipitation  
Precipitation 0.00 in 0.14 in 1.10 in (1903)
Month to date precipitation 1.84  
Year to date precipitation 21.57  
Sea Level Pressure  
Sea Level Pressure 30.03 in    
Wind  
Wind Speed 9 mph (SSE)    
Max Wind Speed 15 mph    
Max Gust Speed 29 mph    
Visibility 10 miles    
Events Thunderstorm    
T = Trace of Precipitation, MM = Missing Value Source: NWS Daily Summary

Daily Weather History Graph

Daily Weather History Graph

Search for Another Location

Airport or City:

Trip Planner

Search our weather history database for the weather conditions in past years. The results will help you decide how hot, cold, wet, or windy it might be!

Date:

Astronomy

May. 13, 2014 Rise Set
Actual Time 6:04 AM CDT 7:50 PM CDT
Civil Twilight 5:37 AM CDT 8:17 PM CDT
Nautical Twilight 5:05 AM CDT 8:49 PM CDT
Astronomical Twilight 4:30 AM CDT 9:24 PM CDT
Moon 6:56 PM CDT (5/13) 5:15 AM CDT (5/13)
Length of Visible Light 14h 40m
Length of Day
13h 46m
Waxing Gibbous, 99% of the Moon is Illuminated
May 13
Waxing Gibbous
May 14
Full
May 21
Last Quarter
May 28
New
Jun 5
First Quarter

Hourly Weather History & Observations

Time (CDT) Temp. Heat Index Dew Point Humidity Pressure Visibility Wind Dir Wind Speed Gust Speed Precip Events Conditions
1:00 AM 73.4 °F - 66.2 °F 78% 30.03 in 10.0 mi SSE 15.0 mph 23.0 mph N/A   Mostly Cloudy
1:32 AM 71.6 °F - 66.2 °F 83% 30.03 in 10.0 mi South 10.4 mph - N/A   Scattered Clouds
1:53 AM 72.0 °F - 66.0 °F 81% 30.00 in 9.0 mi SE 9.2 mph - N/A   Clear
2:31 AM 71.6 °F - 66.2 °F 83% 30.02 in 8.0 mi SSE 8.1 mph - N/A   Scattered Clouds
2:40 AM 71.6 °F - 66.2 °F 83% 30.02 in 8.0 mi SSE 8.1 mph - N/A   Mostly Cloudy
2:53 AM 72.0 °F - 66.9 °F 84% 30.00 in 8.0 mi SSE 8.1 mph - N/A   Overcast
3:53 AM 72.0 °F - 66.9 °F 84% 29.99 in 9.0 mi SE 5.8 mph - N/A   Overcast
4:26 AM 71.6 °F - 66.2 °F 83% 30.01 in 9.0 mi SSE 8.1 mph - N/A   Overcast
4:53 AM 72.0 °F - 66.9 °F 84% 30.00 in 9.0 mi SSE 5.8 mph - N/A   Overcast
5:26 AM 71.6 °F - 66.2 °F 83% 30.02 in 9.0 mi South 5.8 mph - N/A   Scattered Clouds
5:43 AM 71.6 °F - 66.2 °F 83% 30.03 in 9.0 mi South 5.8 mph - N/A   Mostly Cloudy
5:53 AM 72.0 °F - 66.0 °F 81% 30.01 in 9.0 mi North - - N/A   Mostly Cloudy
6:06 AM 71.6 °F - 66.2 °F 83% 30.04 in 9.0 mi North - - N/A   Overcast
6:53 AM 73.0 °F - 66.9 °F 81% 30.04 in 9.0 mi North - - N/A   Overcast
7:12 AM 73.4 °F - 66.2 °F 78% 30.07 in 10.0 mi South 6.9 mph - N/A   Scattered Clouds
8:05 AM 75.2 °F - 66.2 °F 73% 30.07 in 10.0 mi SSE 13.8 mph - N/A   Mostly Cloudy
8:29 AM 75.2 °F - 66.2 °F 73% 30.08 in 10.0 mi South 12.7 mph - N/A   Mostly Cloudy
8:53 AM 78.1 °F - 66.0 °F 66% 30.06 in 10.0 mi South 12.7 mph 18.4 mph N/A   Mostly Cloudy
9:17 AM 78.8 °F - 64.4 °F 61% 30.09 in 10.0 mi SSE 13.8 mph - N/A   Scattered Clouds
9:53 AM 80.1 °F 81.1 °F 61.0 °F 52% 30.07 in 10.0 mi South 12.7 mph - N/A   Partly Cloudy
11:53 AM 81.0 °F 81.9 °F 62.1 °F 52% 30.05 in 10.0 mi WSW 5.8 mph - N/A   Mostly Cloudy
12:53 PM 82.0 °F 82.4 °F 60.1 °F 47% 30.04 in 10.0 mi South 6.9 mph - N/A   Mostly Cloudy
1:53 PM 84.9 °F 85.0 °F 61.0 °F 44% 30.04 in 10.0 mi Variable 3.5 mph - N/A   Partly Cloudy
2:53 PM 84.0 °F 83.5 °F 57.9 °F 41% 30.02 in 10.0 mi South 5.8 mph - N/A   Clear
3:53 PM 86.0 °F 85.4 °F 59.0 °F 40% 29.99 in 10.0 mi Calm Calm - N/A   Clear
4:53 PM 86.0 °F 85.0 °F 57.9 °F 38% 29.97 in 10.0 mi North - - N/A   Clear
5:53 PM 84.9 °F 84.4 °F 59.0 °F 41% 29.97 in 10.0 mi NNW 4.6 mph - N/A   Scattered Clouds
6:53 PM 82.0 °F 82.7 °F 61.0 °F 49% 29.99 in 10.0 mi North - - N/A   Mostly Cloudy
7:53 PM 80.1 °F 81.5 °F 63.0 °F 56% 29.99 in 10.0 mi North 3.5 mph 28.8 mph N/A   Mostly Cloudy
8:53 PM 78.1 °F - 64.0 °F 62% 30.01 in 10.0 mi NE 3.5 mph - N/A   Clear
9:53 PM 75.9 °F - 64.9 °F 69% 30.02 in 10.0 mi Calm Calm - N/A   Overcast
10:12 PM 75.2 °F - 66.2 °F 73% 30.06 in 10.0 mi West 8.1 mph - N/A Thunderstorm Overcast
10:53 PM 72.0 °F - 64.9 °F 78% 30.04 in 10.0 mi NNW 8.1 mph - N/A Thunderstorm Thunderstorm
11:17 PM 71.6 °F - 64.4 °F 78% 30.06 in 10.0 mi NNW 4.6 mph - N/A   Clear
11:25 PM 71.6 °F - 64.4 °F 78% 30.06 in 10.0 mi NW 4.6 mph - N/A Thunderstorm Partly Cloudy
11:40 PM 71.6 °F - 64.4 °F 78% 30.06 in 10.0 mi Variable 4.6 mph - N/A   Scattered Clouds
11:53 PM 71.1 °F - 64.9 °F 81% 30.04 in 10.0 mi North 4.6 mph - N/A   Mostly Cloudy